Time,TemperatureF,DewpointF,PressureIn,WindDirection,WindDirectionDegrees,WindSpeedMPH,WindSpeedGustMPH,Humidity,HourlyPrecipIn,Conditions,Clouds,dailyrainin,SoftwareType,DateUTC
2013-09-24 00:00:00,64.0,55.2,29.78,SSE,161,0.0,0.0,73,0.00,,,0.00,Wunderground v.1.15,2013-09-24 05:00:00,
2013-09-24 00:05:00,64.0,55.9,29.78,SSE,161,0.0,0.0,75,0.00,,,0.00,Wunderground v.1.15,2013-09-24 05:05:00,
2013-09-24 00:10:00,64.0,55.9,29.78,SSE,161,0.0,0.0,75,0.00,,,0.00,Wunderground v.1.15,2013-09-24 05:10:00,
2013-09-24 00:20:00,63.9,55.4,29.78,SSE,161,0.0,0.0,74,0.00,,,0.00,Wunderground v.1.15,2013-09-24 05:20:00,
2013-09-24 00:25:00,63.9,54.7,29.78,SSE,161,0.0,0.0,72,0.00,,,0.00,Wunderground v.1.15,2013-09-24 05:25:00,
2013-09-24 00:35:00,63.9,56.2,29.78,SSE,161,0.0,0.0,76,0.00,,,0.00,Wunderground v.1.15,2013-09-24 05:35:00,
2013-09-24 00:40:00,63.9,56.5,29.78,SSE,161,0.0,0.0,77,0.00,,,0.00,Wunderground v.1.15,2013-09-24 05:40:00,
2013-09-24 00:50:00,63.7,56.4,29.78,SSE,161,0.0,0.0,77,0.00,,,0.00,Wunderground v.1.15,2013-09-24 05:50:00,
2013-09-24 00:55:00,63.7,56.4,29.78,SSE,161,0.0,0.0,77,0.00,,,0.00,Wunderground v.1.15,2013-09-24 05:55:00,
2013-09-24 01:05:00,63.5,56.5,29.78,SSE,161,0.0,0.0,78,0.00,,,0.00,Wunderground v.1.15,2013-09-24 06:05:00,
2013-09-24 01:10:00,63.5,56.5,29.78,SSE,161,0.0,0.0,78,0.00,,,0.00,Wunderground v.1.15,2013-09-24 06:10:00,
2013-09-24 01:20:00,63.5,56.5,29.78,SSE,161,0.0,0.0,78,0.00,,,0.00,Wunderground v.1.15,2013-09-24 06:20:00,
2013-09-24 01:25:00,63.4,55.3,29.78,SSE,161,0.0,0.0,75,0.00,,,0.00,Wunderground v.1.15,2013-09-24 06:25:00,
2013-09-24 01:35:00,63.4,55.7,29.78,SSE,161,0.0,0.0,76,0.00,,,0.00,Wunderground v.1.15,2013-09-24 06:35:00,
2013-09-24 01:40:00,63.2,55.5,29.78,SSE,161,0.0,0.0,76,0.00,,,0.00,Wunderground v.1.15,2013-09-24 06:40:00,
2013-09-24 01:50:00,63.2,55.1,29.78,SSE,161,0.0,0.0,75,0.00,,,0.00,Wunderground v.1.15,2013-09-24 06:50:00,
2013-09-24 01:55:00,63.1,54.7,29.78,SSE,161,0.0,0.0,74,0.00,,,0.00,Wunderground v.1.15,2013-09-24 06:55:00,
2013-09-24 02:05:00,62.9,53.7,29.78,SSE,161,0.0,0.0,72,0.00,,,0.00,Wunderground v.1.15,2013-09-24 07:05:00,
2013-09-24 02:10:00,62.9,53.7,29.78,SSE,161,0.0,0.0,72,0.00,,,0.00,Wunderground v.1.15,2013-09-24 07:10:00,
2013-09-24 02:20:00,62.9,54.1,29.78,SSE,161,0.0,0.0,73,0.00,,,0.00,Wunderground v.1.15,2013-09-24 07:20:00,
2013-09-24 02:25:00,62.7,53.5,29.78,SSE,161,0.0,0.0,72,0.00,,,0.00,Wunderground v.1.15,2013-09-24 07:25:00,
2013-09-24 02:35:00,62.7,55.0,29.78,SSE,161,0.0,0.0,76,0.00,,,0.00,Wunderground v.1.15,2013-09-24 07:35:00,
2013-09-24 02:40:00,62.7,54.3,29.78,SSE,161,0.0,0.0,74,0.00,,,0.00,Wunderground v.1.15,2013-09-24 07:40:00,
2013-09-24 02:50:00,62.6,53.8,29.78,SSE,161,0.0,0.0,73,0.00,,,0.00,Wunderground v.1.15,2013-09-24 07:50:00,
2013-09-24 02:55:00,62.6,53.8,29.78,SSE,161,0.0,0.0,73,0.00,,,0.00,Wunderground v.1.15,2013-09-24 07:55:00,
2013-09-24 03:05:00,62.6,54.9,29.78,SSE,161,0.0,0.0,76,0.00,,,0.00,Wunderground v.1.15,2013-09-24 08:05:00,
2013-09-24 03:10:00,62.6,54.6,29.78,SSE,161,0.0,0.0,75,0.00,,,0.00,Wunderground v.1.15,2013-09-24 08:10:00,
2013-09-24 03:20:00,62.4,54.0,29.78,SSE,161,0.0,0.0,74,0.00,,,0.00,Wunderground v.1.15,2013-09-24 08:20:00,
2013-09-24 03:25:00,62.4,53.3,29.78,SSE,161,0.0,0.0,72,0.00,,,0.00,Wunderground v.1.15,2013-09-24 08:25:00,
2013-09-24 03:35:00,62.4,54.0,29.79,SSE,161,0.0,0.0,74,0.00,,,0.00,Wunderground v.1.15,2013-09-24 08:35:00,
2013-09-24 03:40:00,62.3,54.3,29.79,SSE,161,0.0,0.0,75,0.00,,,0.00,Wunderground v.1.15,2013-09-24 08:40:00,
2013-09-24 03:50:00,62.3,55.0,29.79,SSE,161,0.0,0.0,77,0.00,,,0.00,Wunderground v.1.15,2013-09-24 08:50:00,
2013-09-24 03:55:00,62.1,54.4,29.79,SSE,161,0.0,0.0,76,0.00,,,0.00,Wunderground v.1.15,2013-09-24 08:55:00,
2013-09-24 04:05:00,62.0,54.3,29.79,SSE,161,0.0,0.0,76,0.00,,,0.00,Wunderground v.1.15,2013-09-24 09:05:00,
2013-09-24 04:10:00,62.0,54.7,29.79,SSE,161,0.0,0.0,77,0.00,,,0.00,Wunderground v.1.15,2013-09-24 09:10:00,
2013-09-24 04:20:00,62.0,55.1,29.79,SSE,161,0.0,0.0,78,0.00,,,0.00,Wunderground v.1.15,2013-09-24 09:20:00,
2013-09-24 04:25:00,62.0,55.4,29.79,SSE,161,0.0,0.0,79,0.00,,,0.00,Wunderground v.1.15,2013-09-24 09:25:00,
2013-09-24 04:35:00,62.0,55.1,29.79,SSE,161,0.0,0.0,78,0.00,,,0.00,Wunderground v.1.15,2013-09-24 09:35:00,
2013-09-24 04:40:00,62.0,55.8,29.79,SSE,161,0.0,0.0,80,0.00,,,0.00,Wunderground v.1.15,2013-09-24 09:40:00,
2013-09-24 04:50:00,61.8,55.6,29.79,SSE,161,0.0,0.0,80,0.00,,,0.00,Wunderground v.1.15,2013-09-24 09:50:00,
2013-09-24 04:55:00,61.8,55.2,29.80,SSE,161,0.0,0.0,79,0.00,,,0.00,Wunderground v.1.15,2013-09-24 09:55:00,
2013-09-24 05:05:00,61.8,55.6,29.80,SSE,161,0.0,0.0,80,0.00,,,0.00,Wunderground v.1.15,2013-09-24 10:05:00,
2013-09-24 05:10:00,61.8,55.6,29.80,SSE,161,0.0,0.0,80,0.00,,,0.00,Wunderground v.1.15,2013-09-24 10:10:00,
2013-09-24 05:20:00,61.6,55.0,29.81,SSE,161,0.0,0.0,79,0.00,,,0.00,Wunderground v.1.15,2013-09-24 10:20:00,
2013-09-24 05:25:00,61.6,55.4,29.81,SSE,161,0.0,0.0,80,0.00,,,0.00,Wunderground v.1.15,2013-09-24 10:25:00,
2013-09-24 05:35:00,61.8,55.6,29.81,SSE,161,0.0,0.0,80,0.00,,,0.00,Wunderground v.1.15,2013-09-24 10:35:00,
2013-09-24 05:40:00,61.8,55.2,29.81,SSE,162,0.0,0.0,79,0.00,,,0.00,Wunderground v.1.15,2013-09-24 10:40:00,
2013-09-24 05:50:00,62.6,53.8,29.81,SSE,165,0.0,0.0,73,0.00,,,0.00,Wunderground v.1.15,2013-09-24 10:50:00,
2013-09-24 05:55:00,63.2,54.4,29.81,SSE,168,1.0,1.0,73,0.00,,,0.00,Wunderground v.1.15,2013-09-24 10:55:00,
2013-09-24 06:05:00,63.9,53.5,29.82,South,171,0.0,0.0,69,0.00,,,0.00,Wunderground v.1.15,2013-09-24 11:05:00,
2013-09-24 06:10:00,64.0,53.6,29.83,South,171,0.0,0.0,69,0.00,,,0.00,Wunderground v.1.15,2013-09-24 11:10:00,
2013-09-24 06:20:00,64.3,53.9,29.83,South,171,0.0,0.0,69,0.00,,,0.00,Wunderground v.1.15,2013-09-24 11:20:00,
2013-09-24 06:25:00,64.3,53.9,29.83,South,171,0.0,0.0,69,0.00,,,0.00,Wunderground v.1.15,2013-09-24 11:25:00,
2013-09-24 06:35:00,64.2,54.2,29.83,South,171,0.0,0.0,70,0.00,,,0.00,Wunderground v.1.15,2013-09-24 11:35:00,
2013-09-24 06:40:00,64.2,54.2,29.83,South,171,0.0,0.0,70,0.00,,,0.00,Wunderground v.1.15,2013-09-24 11:40:00,
2013-09-24 06:55:00,63.9,53.9,29.83,South,171,0.0,0.0,70,0.00,,,0.00,Wunderground v.1.15,2013-09-24 11:55:00,
2013-09-24 07:05:00,63.7,54.1,29.84,South,171,0.0,0.0,71,0.00,,,0.00,Wunderground v.1.15,2013-09-24 12:05:00,
2013-09-24 07:10:00,63.5,54.3,29.84,South,171,0.0,0.0,72,0.00,,,0.00,Wunderground v.1.15,2013-09-24 12:10:00,
2013-09-24 07:20:00,63.2,55.1,29.84,South,171,0.0,0.0,75,0.00,,,0.00,Wunderground v.1.15,2013-09-24 12:20:00,
2013-09-24 07:25:00,63.1,55.0,29.85,South,171,0.0,0.0,75,0.00,,,0.00,Wunderground v.1.15,2013-09-24 12:25:00,
2013-09-24 07:35:00,62.7,54.3,29.85,South,171,0.0,0.0,74,0.00,,,0.00,Wunderground v.1.15,2013-09-24 12:35:00,
2013-09-24 07:40:00,62.4,54.7,29.85,South,171,0.0,0.0,76,0.00,,,0.00,Wunderground v.1.15,2013-09-24 12:40:00,
2013-09-24 07:50:00,62.1,54.8,29.86,South,171,0.0,0.0,77,0.00,,,0.00,Wunderground v.1.15,2013-09-24 12:50:00,
2013-09-24 07:55:00,62.0,55.1,29.86,South,171,0.0,0.0,78,0.00,,,0.00,Wunderground v.1.15,2013-09-24 12:55:00,
2013-09-24 08:05:00,62.1,55.9,29.87,South,171,0.0,0.0,80,0.00,,,0.00,Wunderground v.1.15,2013-09-24 13:05:00,
2013-09-24 08:10:00,62.3,56.0,29.87,South,171,0.0,0.0,80,0.00,,,0.00,Wunderground v.1.15,2013-09-24 13:10:00,
2013-09-24 08:20:00,62.9,56.6,29.87,South,171,0.0,0.0,80,0.00,,,0.00,Wunderground v.1.15,2013-09-24 13:20:00,
2013-09-24 08:25:00,63.2,56.6,29.87,South,171,0.0,0.0,79,0.00,,,0.00,Wunderground v.1.15,2013-09-24 13:25:00,
2013-09-24 08:35:00,64.0,56.6,29.87,South,171,0.0,0.0,77,0.00,,,0.00,Wunderground v.1.15,2013-09-24 13:35:00,
2013-09-24 08:40:00,64.5,57.1,29.87,South,171,0.0,0.0,77,0.00,,,0.00,Wunderground v.1.15,2013-09-24 13:40:00,
2013-09-24 08:50:00,65.5,56.2,29.87,South,171,0.0,0.0,72,0.00,,,0.00,Wunderground v.1.15,2013-09-24 13:50:00,
2013-09-24 08:55:00,66.0,57.1,29.87,South,171,0.0,0.0,73,0.00,,,0.00,Wunderground v.1.15,2013-09-24 13:55:00,
2013-09-24 09:05:00,67.1,57.4,29.88,South,171,0.0,0.0,71,0.00,,,0.00,Wunderground v.1.15,2013-09-24 14:05:00,
2013-09-24 09:10:00,67.9,57.4,29.88,South,171,0.0,0.0,69,0.00,,,0.00,Wunderground v.1.15,2013-09-24 14:10:00,
2013-09-24 09:20:00,69.3,57.0,29.88,South,174,0.0,0.0,65,0.00,,,0.00,Wunderground v.1.15,2013-09-24 14:20:00,
2013-09-24 09:25:00,70.3,56.7,29.88,South,174,0.0,0.0,62,0.00,,,0.00,Wunderground v.1.15,2013-09-24 14:25:00,
2013-09-24 09:35:00,71.8,56.7,29.88,South,175,0.0,0.0,59,0.00,,,0.00,Wunderground v.1.15,2013-09-24 14:35:00,
2013-09-24 09:40:00,72.7,57.1,29.88,South,175,0.0,1.0,58,0.00,,,0.00,Wunderground v.1.15,2013-09-24 14:40:00,
2013-09-24 09:50:00,73.9,58.7,29.88,South,175,0.0,0.0,59,0.00,,,0.00,Wunderground v.1.15,2013-09-24 14:50:00,
2013-09-24 09:55:00,74.6,58.8,29.88,South,175,0.0,0.0,58,0.00,,,0.00,Wunderground v.1.15,2013-09-24 14:55:00,
2013-09-24 10:05:00,75.6,57.8,29.88,South,175,0.0,0.0,54,0.00,,,0.00,Wunderground v.1.15,2013-09-24 15:05:00,
2013-09-24 10:10:00,76.3,58.4,29.88,South,175,0.0,0.0,54,0.00,,,0.00,Wunderground v.1.15,2013-09-24 15:10:00,
2013-09-24 10:20:00,77.9,58.9,29.88,South,175,0.0,0.0,52,0.00,,,0.00,Wunderground v.1.15,2013-09-24 15:20:00,
2013-09-24 10:25:00,78.6,57.8,29.88,South,175,0.0,5.0,49,0.00,,,0.00,Wunderground v.1.15,2013-09-24 15:25:00,
2013-09-24 10:35:00,80.3,59.4,29.88,South,176,0.0,0.0,49,0.00,,,0.00,Wunderground v.1.15,2013-09-24 15:35:00,
2013-09-24 10:40:00,81.2,59.1,29.88,South,176,0.0,0.0,47,0.00,,,0.00,Wunderground v.1.15,2013-09-24 15:40:00,
2013-09-24 10:50:00,82.4,60.1,29.88,South,176,0.0,0.0,47,0.00,,,0.00,Wunderground v.1.15,2013-09-24 15:50:00,
2013-09-24 10:55:00,83.0,59.5,29.88,South,176,0.0,0.0,45,0.00,,,0.00,Wunderground v.1.15,2013-09-24 15:55:00,
2013-09-24 11:05:00,83.8,60.2,29.88,South,178,0.0,0.0,45,0.00,,,0.00,Wunderground v.1.15,2013-09-24 16:05:00,
2013-09-24 11:10:00,84.3,56.6,29.88,South,178,0.0,0.0,39,0.00,,,0.00,Wunderground v.1.15,2013-09-24 16:10:00,
2013-09-24 11:20:00,84.7,57.0,29.88,South,178,0.0,0.0,39,0.00,,,0.00,Wunderground v.1.15,2013-09-24 16:20:00,
2013-09-24 11:25:00,85.5,59.1,29.88,South,178,0.0,0.0,41,0.00,,,0.00,Wunderground v.1.15,2013-09-24 16:25:00,
2013-09-24 11:35:00,85.5,57.7,29.87,South,178,0.0,0.0,39,0.00,,,0.00,Wunderground v.1.15,2013-09-24 16:35:00,
2013-09-24 11:40:00,85.9,56.6,29.87,South,178,0.0,2.0,37,0.00,,,0.00,Wunderground v.1.15,2013-09-24 16:40:00,
2013-09-24 11:50:00,86.5,54.0,29.87,South,178,1.0,1.0,33,0.00,,,0.00,Wunderground v.1.15,2013-09-24 16:50:00,
2013-09-24 11:55:00,86.7,55.8,29.87,South,176,1.0,2.0,35,0.00,,,0.00,Wunderground v.1.15,2013-09-24 16:55:00,
2013-09-24 12:05:00,88.0,53.6,29.86,South,176,1.0,3.0,31,0.00,,,0.00,Wunderground v.1.15,2013-09-24 17:05:00,
2013-09-24 12:10:00,88.4,55.6,29.87,South,176,0.0,0.0,33,0.00,,,0.00,Wunderground v.1.15,2013-09-24 17:10:00,
2013-09-24 12:20:00,88.4,53.9,29.86,South,188,1.0,1.0,31,0.00,,,0.00,Wunderground v.1.15,2013-09-24 17:20:00,
2013-09-24 12:25:00,88.8,53.4,29.86,South,189,1.0,1.0,30,0.00,,,0.00,Wunderground v.1.15,2013-09-24 17:25:00,
2013-09-24 12:35:00,89.7,57.6,29.86,SSW,199,1.0,1.0,34,0.00,,,0.00,Wunderground v.1.15,2013-09-24 17:35:00,
2013-09-24 12:40:00,89.9,56.1,29.86,SSW,212,2.0,2.0,32,0.00,,,0.00,Wunderground v.1.15,2013-09-24 17:40:00,
2013-09-24 12:50:00,89.9,57.8,29.85,NW,325,2.0,3.0,34,0.00,,,0.00,Wunderground v.1.15,2013-09-24 17:50:00,
2013-09-24 12:55:00,89.9,56.1,29.85,NNW,336,3.0,5.0,32,0.00,,,0.00,Wunderground v.1.15,2013-09-24 17:55:00,
2013-09-24 13:05:00,90.1,56.3,29.85,NNW,340,3.0,4.0,32,0.00,,,0.00,Wunderground v.1.15,2013-09-24 18:05:00,
2013-09-24 13:10:00,90.5,55.7,29.85,NNW,337,3.0,3.0,31,0.00,,,0.00,Wunderground v.1.15,2013-09-24 18:10:00,
2013-09-24 13:20:00,91.0,59.5,29.85,North,349,2.0,3.0,35,0.00,,,0.00,Wunderground v.1.15,2013-09-24 18:20:00,
2013-09-24 13:25:00,91.2,58.1,29.85,North,350,4.0,6.0,33,0.00,,,0.00,Wunderground v.1.15,2013-09-24 18:25:00,
2013-09-24 13:35:00,91.2,56.3,29.84,NNW,328,3.0,5.0,31,0.00,,,0.00,Wunderground v.1.15,2013-09-24 18:35:00,
2013-09-24 13:40:00,91.0,57.9,29.84,NNW,339,5.0,6.0,33,0.00,,,0.00,Wunderground v.1.15,2013-09-24 18:40:00,
2013-09-24 13:50:00,91.8,56.9,29.83,North,0,2.0,2.0,31,0.00,,,0.00,Wunderground v.1.15,2013-09-24 18:50:00,
2013-09-24 13:55:00,91.4,55.6,29.83,North,359,4.0,4.0,30,0.00,,,0.00,Wunderground v.1.15,2013-09-24 18:55:00,
2013-09-24 14:05:00,91.2,56.3,29.83,North,0,2.0,3.0,31,0.00,,,0.00,Wunderground v.1.15,2013-09-24 19:05:00,
2013-09-24 14:10:00,91.2,58.1,29.83,North,0,1.0,1.0,33,0.00,,,0.00,Wunderground v.1.15,2013-09-24 19:10:00,
2013-09-24 14:20:00,91.2,58.9,29.82,North,0,2.0,2.0,34,0.00,,,0.00,Wunderground v.1.15,2013-09-24 19:20:00,
2013-09-24 14:25:00,91.4,57.4,29.82,North,356,2.0,2.0,32,0.00,,,0.00,Wunderground v.1.15,2013-09-24 19:25:00,
2013-09-24 14:35:00,92.3,58.2,29.82,North,356,1.0,2.0,32,0.00,,,0.00,Wunderground v.1.15,2013-09-24 19:35:00,
2013-09-24 14:40:00,92.3,59.0,29.82,North,0,1.0,1.0,33,0.00,,,0.00,Wunderground v.1.15,2013-09-24 19:40:00,
2013-09-24 14:50:00,92.9,56.9,29.81,North,0,1.0,1.0,30,0.00,,,0.00,Wunderground v.1.15,2013-09-24 19:50:00,
2013-09-24 14:55:00,92.7,57.6,29.81,North,0,1.0,1.0,31,0.00,,,0.00,Wunderground v.1.15,2013-09-24 19:55:00,
2013-09-24 15:05:00,93.2,58.1,29.80,North,0,1.0,6.0,31,0.00,,,0.00,Wunderground v.1.15,2013-09-24 20:05:00,
2013-09-24 15:10:00,93.2,58.1,29.80,North,3,2.0,2.0,31,0.00,,,0.00,Wunderground v.1.15,2013-09-24 20:10:00,
2013-09-24 15:20:00,93.6,57.5,29.80,North,10,3.0,4.0,30,0.00,,,0.00,Wunderground v.1.15,2013-09-24 20:20:00,
2013-09-24 15:25:00,93.4,57.3,29.80,North,10,3.0,4.0,30,0.00,,,0.00,Wunderground v.1.15,2013-09-24 20:25:00,
2013-09-24 15:35:00,92.9,57.8,29.80,NE,40,3.0,3.0,31,0.00,,,0.00,Wunderground v.1.15,2013-09-24 20:35:00,
2013-09-24 15:40:00,93.2,56.2,29.80,NE,35,4.0,4.0,29,0.00,,,0.00,Wunderground v.1.15,2013-09-24 20:40:00,
2013-09-24 15:50:00,93.2,55.2,29.79,NNE,28,2.0,2.0,28,0.00,,,0.00,Wunderground v.1.15,2013-09-24 20:50:00,
2013-09-24 15:55:00,93.2,57.2,29.79,NNE,28,1.0,2.0,30,0.00,,,0.00,Wunderground v.1.15,2013-09-24 20:55:00,
2013-09-24 16:05:00,93.2,56.2,29.78,NNE,31,1.0,2.0,29,0.00,,,0.00,Wunderground v.1.15,2013-09-24 21:05:00,
2013-09-24 16:10:00,93.2,55.2,29.78,NNE,30,1.0,1.0,28,0.00,,,0.00,Wunderground v.1.15,2013-09-24 21:10:00,
2013-09-24 16:20:00,92.7,56.7,29.78,NE,44,2.0,2.0,30,0.00,,,0.00,Wunderground v.1.15,2013-09-24 21:20:00,
2013-09-24 16:25:00,92.3,55.4,29.78,NE,44,2.0,2.0,29,0.00,,,0.00,Wunderground v.1.15,2013-09-24 21:25:00,
2013-09-24 16:35:00,91.6,54.8,29.78,NE,45,2.0,2.0,29,0.00,,,0.00,Wunderground v.1.15,2013-09-24 21:35:00,
2013-09-24 16:40:00,91.4,55.6,29.78,NE,45,2.0,2.0,30,0.00,,,0.00,Wunderground v.1.15,2013-09-24 21:40:00,
2013-09-24 16:50:00,91.0,56.2,29.78,NE,45,2.0,2.0,31,0.00,,,0.00,Wunderground v.1.15,2013-09-24 21:50:00,
2013-09-24 16:55:00,90.3,55.6,29.78,NE,42,2.0,2.0,31,0.00,,,0.00,Wunderground v.1.15,2013-09-24 21:55:00,
2013-09-24 17:05:00,89.7,55.9,29.78,NE,40,3.0,4.0,32,0.00,,,0.00,Wunderground v.1.15,2013-09-24 22:05:00,
2013-09-24 17:10:00,89.7,55.0,29.77,NE,41,2.0,2.0,31,0.00,,,0.00,Wunderground v.1.15,2013-09-24 22:10:00,
2013-09-24 17:20:00,89.5,55.7,29.77,NE,40,1.0,1.0,32,0.00,,,0.00,Wunderground v.1.15,2013-09-24 22:20:00,
2013-09-24 17:25:00,89.3,55.6,29.77,NE,40,1.0,1.0,32,0.00,,,0.00,Wunderground v.1.15,2013-09-24 22:25:00,
2013-09-24 17:35:00,88.8,56.0,29.78,NE,40,2.0,6.0,33,0.00,,,0.00,Wunderground v.1.15,2013-09-24 22:35:00,
2013-09-24 17:40:00,88.8,56.8,29.77,NE,40,1.0,1.0,34,0.00,,,0.00,Wunderground v.1.15,2013-09-24 22:40:00,
2013-09-24 17:50:00,88.4,56.5,29.77,NE,40,1.0,1.0,34,0.00,,,0.00,Wunderground v.1.15,2013-09-24 22:50:00,
2013-09-24 17:55:00,88.2,56.3,29.77,NE,40,1.0,1.0,34,0.00,,,0.00,Wunderground v.1.15,2013-09-24 22:55:00,
2013-09-24 18:05:00,87.8,56.7,29.78,NE,40,1.0,2.0,35,0.00,,,0.00,Wunderground v.1.15,2013-09-24 23:05:00,
2013-09-24 18:15:00,87.6,56.6,29.78,NE,40,0.0,1.0,35,0.00,,,0.00,Wunderground v.1.15,2013-09-24 23:15:00,
2013-09-24 18:20:00,87.2,58.5,29.78,NE,40,0.0,3.0,38,0.00,,,0.00,Wunderground v.1.15,2013-09-24 23:20:00,
2013-09-24 18:25:00,87.0,58.3,29.78,NE,40,1.0,3.0,38,0.00,,,0.00,Wunderground v.1.15,2013-09-24 23:25:00,
2013-09-24 18:35:00,86.5,58.6,29.78,NE,40,0.0,1.0,39,0.00,,,0.00,Wunderground v.1.15,2013-09-24 23:35:00,
2013-09-24 18:40:00,86.1,59.0,29.78,NE,40,0.0,0.0,40,0.00,,,0.00,Wunderground v.1.15,2013-09-24 23:40:00,
2013-09-24 18:50:00,85.3,59.6,29.78,NE,40,0.0,0.0,42,0.00,,,0.00,Wunderground v.1.15,2013-09-24 23:50:00,
2013-09-24 18:55:00,84.9,59.9,29.78,NE,40,0.0,0.0,43,0.00,,,0.00,Wunderground v.1.15,2013-09-24 23:55:00,
2013-09-24 19:05:00,84.0,61.6,29.79,NE,40,0.0,0.0,47,0.00,,,0.00,Wunderground v.1.15,2013-09-25 00:05:00,
2013-09-24 19:10:00,83.2,62.1,29.79,NE,40,0.0,0.0,49,0.00,,,0.00,Wunderground v.1.15,2013-09-25 00:10:00,
2013-09-24 19:20:00,82.0,61.5,29.79,NE,40,0.0,0.0,50,0.00,,,0.00,Wunderground v.1.15,2013-09-25 00:20:00,
2013-09-24 19:25:00,81.1,60.7,29.79,NE,40,0.0,0.0,50,0.00,,,0.00,Wunderground v.1.15,2013-09-25 00:25:00,
2013-09-24 19:35:00,79.8,60.6,29.79,NE,40,0.0,0.0,52,0.00,,,0.00,Wunderground v.1.15,2013-09-25 00:35:00,
2013-09-24 19:40:00,79.0,60.4,29.79,NE,40,0.0,0.0,53,0.00,,,0.00,Wunderground v.1.15,2013-09-25 00:40:00,
2013-09-24 19:50:00,77.9,60.4,29.80,NE,40,0.0,0.0,55,0.00,,,0.00,Wunderground v.1.15,2013-09-25 00:50:00,
2013-09-24 19:55:00,77.2,60.3,29.80,NE,40,0.0,0.0,56,0.00,,,0.00,Wunderground v.1.15,2013-09-25 00:55:00,
2013-09-24 20:05:00,76.5,60.6,29.79,NE,40,0.0,0.0,58,0.00,,,0.00,Wunderground v.1.15,2013-09-25 01:05:00,
2013-09-24 20:10:00,76.0,60.6,29.79,NE,40,0.0,0.0,59,0.00,,,0.00,Wunderground v.1.15,2013-09-25 01:10:00,
2013-09-24 20:20:00,75.1,59.8,29.80,NE,40,0.0,0.0,59,0.00,,,0.00,Wunderground v.1.15,2013-09-25 01:20:00,
2013-09-24 20:25:00,74.6,59.8,29.81,NE,40,0.0,0.0,60,0.00,,,0.00,Wunderground v.1.15,2013-09-25 01:25:00,
2013-09-24 20:35:00,73.9,60.1,29.81,NE,40,0.0,0.0,62,0.00,,,0.00,Wunderground v.1.15,2013-09-25 01:35:00,
2013-09-24 20:40:00,73.5,59.2,29.82,NE,40,0.0,0.0,61,0.00,,,0.00,Wunderground v.1.15,2013-09-25 01:40:00,
2013-09-24 20:50:00,72.8,59.0,29.82,NE,40,0.0,0.0,62,0.00,,,0.00,Wunderground v.1.15,2013-09-25 01:50:00,
2013-09-24 20:55:00,72.5,58.7,29.82,NE,40,0.0,0.0,62,0.00,,,0.00,Wunderground v.1.15,2013-09-25 01:55:00,
2013-09-24 21:05:00,71.8,59.4,29.82,NE,40,0.0,0.0,65,0.00,,,0.00,Wunderground v.1.15,2013-09-25 02:05:00,
2013-09-24 21:10:00,71.5,59.1,29.82,NE,40,0.0,0.0,65,0.00,,,0.00,Wunderground v.1.15,2013-09-25 02:10:00,
2013-09-24 21:20:00,70.9,59.4,29.82,NE,40,0.0,0.0,67,0.00,,,0.00,Wunderground v.1.15,2013-09-25 02:20:00,
2013-09-24 21:25:00,70.6,59.1,29.82,NE,40,0.0,0.0,67,0.00,,,0.00,Wunderground v.1.15,2013-09-25 02:25:00,
2013-09-24 21:35:00,70.3,59.2,29.83,NE,40,0.0,0.0,68,0.00,,,0.00,Wunderground v.1.15,2013-09-25 02:35:00,
2013-09-24 21:40:00,69.9,58.9,29.83,NE,40,0.0,0.0,68,0.00,,,0.00,Wunderground v.1.15,2013-09-25 02:40:00,
2013-09-24 21:50:00,69.8,59.2,29.83,NE,40,0.0,0.0,69,0.00,,,0.00,Wunderground v.1.15,2013-09-25 02:50:00,
2013-09-24 21:55:00,69.4,59.2,29.83,NE,40,0.0,0.0,70,0.00,,,0.00,Wunderground v.1.15,2013-09-25 02:55:00,
2013-09-24 22:05:00,69.3,59.5,29.82,NE,40,0.0,0.0,71,0.00,,,0.00,Wunderground v.1.15,2013-09-25 03:05:00,
2013-09-24 22:10:00,69.1,59.3,29.82,NE,40,0.0,0.0,71,0.00,,,0.00,Wunderground v.1.15,2013-09-25 03:10:00,
2013-09-24 22:20:00,68.8,59.4,29.82,NE,40,0.0,0.0,72,0.00,,,0.00,Wunderground v.1.15,2013-09-25 03:20:00,
2013-09-24 22:25:00,68.6,59.2,29.82,NE,40,0.0,0.0,72,0.00,,,0.00,Wunderground v.1.15,2013-09-25 03:25:00,
2013-09-24 22:35:00,68.4,59.0,29.83,NE,40,0.0,0.0,72,0.00,,,0.00,Wunderground v.1.15,2013-09-25 03:35:00,
2013-09-24 22:40:00,68.3,58.9,29.83,NE,40,0.0,0.0,72,0.00,,,0.00,Wunderground v.1.15,2013-09-25 03:40:00,
2013-09-24 22:50:00,67.9,58.9,29.82,NE,40,0.0,0.0,73,0.00,,,0.00,Wunderground v.1.15,2013-09-25 03:50:00,
2013-09-24 22:55:00,67.8,58.8,29.82,NE,40,0.0,0.0,73,0.00,,,0.00,Wunderground v.1.15,2013-09-25 03:55:00,
2013-09-24 23:05:00,67.6,59.0,29.82,NE,40,0.0,0.0,74,0.00,,,0.00,Wunderground v.1.15,2013-09-25 04:05:00,
2013-09-24 23:10:00,67.4,58.8,29.82,NE,40,0.0,0.0,74,0.00,,,0.00,Wunderground v.1.15,2013-09-25 04:10:00,
2013-09-24 23:15:00,67.3,58.3,29.82,NE,40,0.0,0.0,73,0.00,,,0.00,Wunderground v.1.15,2013-09-25 04:15:00,
2013-09-24 23:20:00,67.1,58.2,29.82,NE,40,0.0,0.0,73,0.00,,,0.00,Wunderground v.1.15,2013-09-25 04:20:00,
2013-09-24 23:25:00,66.9,58.3,29.82,NE,40,0.0,0.0,74,0.00,,,0.00,Wunderground v.1.15,2013-09-25 04:25:00,
2013-09-24 23:35:00,66.9,58.7,29.82,NE,40,0.0,0.0,75,0.00,,,0.00,Wunderground v.1.15,2013-09-25 04:35:00,
2013-09-24 23:40:00,66.8,58.6,29.82,NE,40,0.0,0.0,75,0.00,,,0.00,Wunderground v.1.15,2013-09-25 04:40:00,
2013-09-24 23:50:00,66.8,58.2,29.82,NE,40,0.0,0.0,74,0.00,,,0.00,Wunderground v.1.15,2013-09-25 04:50:00,
2013-09-24 23:55:00,66.9,58.7,29.82,NE,40,0.0,0.0,75,0.00,,,0.00,Wunderground v.1.15,2013-09-25 04:55:00,